Troy, MI

11:34 AM EDT on September 30, 2016 (GMT -0400)
Troy

Weather History for KVLL - November, 2012

Change the Weather History Date:

Monday, November 19, 2012

  Actual Average (KDET) Record (KDET)
Temperature  
Mean Temperature 47 °F -  
Max Temperature 58 °F 48 °F 68 °F (1953)
Min Temperature 36 °F 35 °F 15 °F (2014)
Degree Days  
Heating Degree Days 18    
Moisture  
Dew Point 37 °F    
Average Humidity 75    
Maximum Humidity 95    
Minimum Humidity 35    
Precipitation  
Precipitation 0.00 in - - ()
Sea Level Pressure  
Sea Level Pressure 30.34 in    
Wind  
Wind Speed 1 mph (ESE)    
Max Wind Speed 7 mph    
Max Gust Speed -    
Visibility 6 miles    
Events Fog    
Averages and records for this station are not official NWS values.
T = Trace of Precipitation, MM = Missing Value Source: NWS Daily Summary

Daily Weather History Graph

Daily Weather History Graph

Search for Another Location

Airport or City:

Trip Planner

Search our weather history database for the weather conditions in past years. The results will help you decide how hot, cold, wet, or windy it might be!

Date:

Astronomy

Nov. 19, 2012 Rise Set
Actual Time 7:29 AM EST 5:06 PM EST
Civil Twilight 6:58 AM EST 5:37 PM EST
Nautical Twilight 6:24 AM EST 6:11 PM EST
Astronomical Twilight 5:50 AM EST 6:45 PM EST
Moon 12:28 PM EST (11/19) 11:36 PM EST (11/19)
Length of Visible Light 10h 38m
Length of Day
9h 37m
Waxing Crescent, 40% of the Moon is Illuminated
Nov 19
Waxing Crescent
Nov 20
First Quarter
Nov 28
Full
Dec 6
Last Quarter
Dec 13
New

Hourly Weather History & Observations

Time (EST) Temp. Windchill Dew Point Humidity Pressure Visibility Wind Dir Wind Speed Gust Speed Precip Events Conditions
12:14 AM 36.9 °F - 34.3 °F 91% 30.44 in 7.0 mi Calm Calm - N/A   Clear
12:34 AM 36.5 °F - 34.2 °F 91% 30.44 in 5.0 mi Calm Calm - N/A   Clear
1:14 AM 36.7 °F 34.1 °F 34.3 °F 91% 30.43 in 5.0 mi NNE 3.5 mph - N/A   Clear
1:35 AM 37.2 °F - 35.1 °F 92% 30.43 in 3.0 mi Calm Calm - N/A   Scattered Clouds
1:55 AM 37.6 °F 35.1 °F 35.4 °F 92% 30.42 in 4.0 mi NE 3.5 mph - N/A   Overcast
2:14 AM 39.2 °F - 37.2 °F 93% 30.42 in 1.2 mi Calm Calm - N/A   Overcast
2:35 AM 40.5 °F - 38.5 °F 93% 30.42 in 0.2 mi Calm Calm - N/A Fog Fog
2:55 AM 41.0 °F 39.0 °F 39.2 °F 93% 30.42 in 0.2 mi NE 3.5 mph - N/A Fog Fog
3:14 AM 41.0 °F - 39.2 °F 93% 30.42 in 0.2 mi Calm Calm - N/A Fog Fog
3:35 AM 40.6 °F - 39.2 °F 95% 30.41 in 0.2 mi Calm Calm - N/A Fog Fog
3:55 AM 40.1 °F - 38.5 °F 94% 30.41 in 0.2 mi Calm Calm - N/A Fog Fog
4:14 AM 39.7 °F - 38.3 °F 95% 30.40 in 0.2 mi Calm Calm - N/A Fog Fog
4:35 AM 40.1 °F - 38.7 °F 95% 30.40 in 0.2 mi Calm Calm - N/A Fog Fog
4:54 AM 40.1 °F 38.0 °F 38.7 °F 95% 30.40 in 0.2 mi NNE 3.5 mph - N/A Fog Fog
5:14 AM 39.4 °F - 37.9 °F 95% 30.40 in 0.2 mi Calm Calm - N/A Fog Fog
5:35 AM 39.4 °F 37.2 °F 37.9 °F 95% 30.40 in 0.2 mi NE 3.5 mph - N/A Fog Fog
5:54 AM 39.4 °F 37.2 °F 37.9 °F 95% 30.40 in 0.2 mi ENE 3.5 mph - N/A Fog Fog
6:15 AM 39.2 °F 37.0 °F 37.8 °F 95% 30.40 in 0.2 mi NE 3.5 mph - N/A Fog Fog
6:34 AM 39.4 °F 37.2 °F 38.1 °F 95% 30.40 in 0.2 mi ENE 3.5 mph - N/A Fog Fog
6:55 AM 39.7 °F - 38.3 °F 95% 30.40 in 0.2 mi Calm Calm - N/A Fog Fog
7:14 AM 39.6 °F - 38.3 °F 95% 30.40 in 0.2 mi Calm Calm - N/A Fog Fog
7:35 AM 39.4 °F - 37.9 °F 95% 30.40 in 0.2 mi Calm Calm - N/A Fog Fog
7:54 AM 39.6 °F - 38.3 °F 95% 30.40 in 0.2 mi Calm Calm - N/A Fog Fog
8:34 AM 39.2 °F 35.9 °F 37.9 °F 95% 30.40 in 0.2 mi ENE 4.6 mph - N/A Fog Fog
8:55 AM 39.7 °F 37.6 °F 38.5 °F 95% 30.40 in 0.2 mi ENE 3.5 mph - N/A Fog Fog
9:15 AM 40.1 °F 36.9 °F 38.8 °F 95% 30.40 in 0.2 mi ENE 4.6 mph - N/A Fog Fog
9:34 AM 41.2 °F - 39.7 °F 95% 30.40 in 0.2 mi Calm Calm - N/A Fog Fog
9:55 AM 41.2 °F - 39.7 °F 95% 30.39 in 0.2 mi Calm Calm - N/A Fog Fog
10:15 AM 41.9 °F 40.0 °F 40.3 °F 94% 30.39 in 1.0 mi ESE 3.5 mph - N/A   Overcast
10:34 AM 43.3 °F - 42.1 °F 95% 30.40 in 1.2 mi Calm Calm - N/A   Overcast
10:55 AM 45.1 °F - 43.7 °F 95% 30.40 in 3.0 mi Calm Calm - N/A   Scattered Clouds
11:14 AM 46.2 °F - 44.6 °F 94% 30.39 in 5.0 mi Calm Calm - N/A   Clear
11:35 AM 48.6 °F - 44.6 °F 86% 30.38 in 7.0 mi Calm Calm - N/A   Clear
11:55 AM 50.5 °F - 45.3 °F 82% 30.37 in 7.0 mi SSE 3.5 mph - N/A   Clear
12:14 PM 51.8 °F - 43.2 °F 72% 30.35 in 7.0 mi Calm Calm - N/A   Clear
12:35 PM 54.0 °F - 40.5 °F 60% 30.34 in 10.0 mi Calm Calm - N/A   Clear
12:55 PM 55.0 °F - 40.3 °F 58% 30.33 in 10.0 mi South 3.5 mph - N/A   Clear
1:14 PM 57.4 °F - 37.0 °F 47% 30.33 in 10.0 mi South 3.5 mph - N/A   Clear
1:35 PM 57.2 °F - 34.7 °F 43% 30.32 in 10.0 mi South 4.6 mph - N/A   Clear
1:55 PM 58.1 °F - 33.6 °F 40% 30.31 in 10.0 mi South 3.5 mph - N/A   Clear
2:14 PM 58.1 °F - 32.0 °F 37% 30.31 in 10.0 mi South 4.6 mph - N/A   Clear
2:35 PM 57.6 °F - 31.8 °F 38% 30.31 in 10.0 mi South 5.8 mph - N/A   Clear
2:54 PM 57.4 °F - 32.0 °F 38% 30.30 in 10.0 mi SSE 5.8 mph - N/A   Clear
3:15 PM 57.4 °F - 32.2 °F 39% 30.29 in 10.0 mi South 3.5 mph - N/A   Clear
3:35 PM 57.2 °F - 30.6 °F 36% 30.30 in 10.0 mi South 6.9 mph - N/A   Clear
3:54 PM 56.5 °F - 29.5 °F 36% 30.28 in 10.0 mi SSE 5.8 mph - N/A   Clear
4:15 PM 56.1 °F - 28.8 °F 35% 30.28 in 10.0 mi South 5.8 mph - N/A   Clear
4:34 PM 55.4 °F - 30.6 °F 39% 30.27 in 10.0 mi Calm Calm - N/A   Clear
4:55 PM 54.7 °F - 31.3 °F 41% 30.27 in 10.0 mi Calm Calm - N/A   Clear
5:15 PM 54.7 °F - 32.5 °F 43% 30.27 in 10.0 mi Calm Calm - N/A   Clear
5:34 PM 53.6 °F - 33.6 °F 47% 30.27 in 10.0 mi Calm Calm - N/A   Clear
5:55 PM 53.6 °F - 36.0 °F 51% 30.27 in 10.0 mi Calm Calm - N/A   Clear
6:15 PM 53.1 °F - 37.2 °F 55% 30.27 in 10.0 mi Calm Calm - N/A   Clear
6:34 PM 52.3 °F - 37.9 °F 58% 30.27 in 10.0 mi Calm Calm - N/A   Clear
6:55 PM 51.8 °F - 38.3 °F 60% 30.27 in 10.0 mi SE 3.5 mph - N/A   Clear
7:15 PM 51.3 °F - 38.8 °F 63% 30.27 in 10.0 mi Calm Calm - N/A   Clear
7:34 PM 50.9 °F - 39.0 °F 64% 30.26 in 10.0 mi SE 3.5 mph - N/A   Clear
7:55 PM 50.2 °F - 38.7 °F 65% 30.26 in 10.0 mi Calm Calm - N/A   Clear
8:15 PM 49.3 °F - 39.2 °F 68% 30.26 in 10.0 mi Calm Calm - N/A   Clear
8:34 PM 48.6 °F - 39.2 °F 70% 30.26 in 10.0 mi Calm Calm - N/A   Clear
8:55 PM 48.2 °F - 38.8 °F 70% 30.25 in 10.0 mi Calm Calm - N/A   Clear
9:14 PM 47.3 °F - 39.2 °F 73% 30.25 in 10.0 mi Calm Calm - N/A   Clear
9:34 PM 47.3 °F - 39.0 °F 73% 30.24 in 10.0 mi Calm Calm - N/A   Clear
10:34 PM 45.3 °F - 38.1 °F 76% 30.23 in 10.0 mi Calm Calm - N/A   Clear
10:55 PM 45.7 °F - 38.7 °F 76% 30.23 in 10.0 mi Calm Calm - N/A   Clear
11:14 PM 45.1 °F - 38.8 °F 79% 30.22 in 10.0 mi Calm Calm - N/A   Clear
11:35 PM 44.4 °F - 38.8 °F 81% 30.22 in 10.0 mi Calm Calm - N/A   Scattered Clouds
11:55 PM 44.1 °F - 38.7 °F 81% 30.22 in 10.0 mi Calm Calm - N/A   Scattered Clouds